User: anonymous   Login
Location: Unspecified
(43.4000°N, 0.0000°E)
Time: 23:20:38
(UTC+00:00)
Language:

NOAA 19 - Orbit

View from above orbital plane
View from above orbital plane
View from above satellite
View from above satellite

Ground track
Ground track

The orbit data is extracted from the following two-line orbital elements,

1 33591U 09005A   20217.55022834 +.00000022 +00000-0 +37462-4 0  9996
2 33591 099.1955 224.1492 0013089 303.5961 056.3960 14.12425178591923
Epoch (UTC): 04 August 2020 13:12:19
Eccentricity: 0.0013089
inclination: 99.1955°
perigee height: 841 km
apogee height: 860 km
right ascension of ascending node: 224.1492°
argument of perigee: 303.5961°
revolutions per day: 14.12425178
mean anomaly at epoch: 56.3960°
orbit number at epoch: 59192

The dashed part of the orbit path shows where the satellite is in the earth's shadow,  

DLR